Wilmington, OH

8:36 PM EDT on October 18, 2017 (GMT -0400)
Airborne

Weather History for KILN - January, 2013

Change the Weather History Date:

Monday, January 21, 2013

  Actual Average (KFFO) Record (KFFO)
Temperature  
Mean Temperature 17 °F -  
Max Temperature 24 °F 32 °F 60 °F (2017)
Min Temperature 9 °F 15 °F -4 °F (2000)
Degree Days  
Heating Degree Days 48    
Moisture  
Dew Point 10 °F    
Average Humidity 66    
Maximum Humidity 86    
Minimum Humidity 52    
Precipitation  
Precipitation 0.02 in - - ()
Sea Level Pressure  
Sea Level Pressure 30.14 in    
Wind  
Wind Speed 13 mph (West)    
Max Wind Speed 26 mph    
Max Gust Speed 32 mph    
Visibility 8 miles    
Events Fog , Snow    
Averages and records for this station are not official NWS values.
T = Trace of Precipitation, MM = Missing Value Source: NWS Daily Summary

Daily Weather History Graph

Daily Weather History Graph

Search for Another Location

Airport or City:

Trip Planner

Search our weather history database for the weather conditions in past years. The results will help you decide how hot, cold, wet, or windy it might be!

Date:

Astronomy

Jan. 21, 2013 Rise Set
Actual Time 7:50 AM EST 5:42 PM EST
Civil Twilight 7:21 AM EST 6:12 PM EST
Nautical Twilight 6:48 AM EST 6:44 PM EST
Astronomical Twilight 6:16 AM EST 7:16 PM EST
Moon 1:22 PM EST (1/21) 3:17 AM EST (1/21)
Length of Visible Light 10h 50m
Length of Day
9h 52m
Waxing Gibbous, 75% of the Moon is Illuminated
Jan 21
Waxing Gibbous
Jan 26
Full
Feb 3
Last Quarter
Feb 10
New
Feb 17
First Quarter

Hourly Weather History & Observations

Time (EST) Temp. Windchill Dew Point Humidity Pressure Visibility Wind Dir Wind Speed Gust Speed Precip Events Conditions
12:54 AM 24.1 °F 17.0 °F 12.0 °F 60% 30.21 in 10.0 mi WNW 5.8 mph - N/A   Overcast
1:54 AM 24.1 °F 15.2 °F 12.0 °F 60% 30.19 in 10.0 mi NW 8.1 mph - N/A   Overcast
2:54 AM 23.0 °F 15.8 °F 12.0 °F 63% 30.19 in 10.0 mi NW 5.8 mph - N/A   Overcast
3:54 AM 23.0 °F 15.8 °F 12.0 °F 63% 30.17 in 10.0 mi WNW 5.8 mph - N/A   Overcast
4:54 AM 23.0 °F 14.7 °F 12.0 °F 63% 30.16 in 10.0 mi West 6.9 mph - N/A   Overcast
5:54 AM 23.0 °F 13.9 °F 12.9 °F 65% 30.16 in 10.0 mi West 8.1 mph - N/A   Overcast
6:54 AM 23.0 °F 12.4 °F 12.9 °F 65% 30.15 in 10.0 mi West 10.4 mph - N/A   Overcast
7:39 AM 21.2 °F 10.1 °F 12.2 °F 68% 30.05 in 10.0 mi West 10.4 mph - N/A   Overcast
7:54 AM 23.0 °F 12.4 °F 12.9 °F 65% 30.15 in 10.0 mi West 10.4 mph - N/A   Overcast
8:54 AM 23.0 °F 11.1 °F 14.0 °F 68% 30.14 in 9.0 mi West 12.7 mph - 0.00 in Snow Light Snow
9:54 AM 23.0 °F 7.2 °F 12.0 °F 63% 30.14 in 9.0 mi West 23.0 mph 28.8 mph 0.00 in   Overcast
10:01 AM 23.0 °F 8.0 °F 12.2 °F 63% 30.05 in 10.0 mi West 20.7 mph - 0.00 in   Overcast
10:09 AM 23.0 °F 10.1 °F 12.2 °F 63% 30.05 in 10.0 mi West 15.0 mph 25.3 mph 0.00 in   Overcast
10:54 AM 23.0 °F 9.6 °F 12.9 °F 65% 30.15 in 10.0 mi West 16.1 mph - 0.00 in   Mostly Cloudy
11:10 AM 23.0 °F 10.1 °F 12.2 °F 63% 30.05 in 10.0 mi West 15.0 mph 24.2 mph N/A   Mostly Cloudy
11:49 AM 24.8 °F 13.4 °F 12.2 °F 59% 30.04 in 9.0 mi West 12.7 mph - 0.00 in   Overcast
11:54 AM 23.0 °F 10.1 °F 12.0 °F 63% 30.14 in 10.0 mi West 15.0 mph 21.9 mph 0.00 in   Overcast
12:02 PM 21.2 °F 6.4 °F 14.0 °F 74% 30.04 in 1.8 mi West 18.4 mph 26.5 mph 0.00 in Snow Light Snow
12:09 PM 21.2 °F 6.8 °F 15.8 °F 80% 30.03 in 0.5 mi West 17.3 mph - 0.00 in Snow Snow
12:30 PM 21.2 °F 6.0 °F 17.6 °F 86% 30.03 in 0.2 mi WNW 19.6 mph 26.5 mph 0.01 in Fog , Snow Heavy Snow
12:37 PM 21.2 °F 6.4 °F 17.6 °F 86% 30.03 in 0.5 mi West 18.4 mph 26.5 mph 0.01 in Fog , Snow Snow
12:45 PM 21.2 °F 6.8 °F 15.8 °F 80% 30.03 in 2.5 mi West 17.3 mph 23.0 mph 0.01 in Snow Light Snow
12:51 PM 23.0 °F 9.6 °F 15.8 °F 74% 30.03 in 5.0 mi West 16.1 mph 24.2 mph 0.01 in Snow Light Snow
12:52 PM 23.0 °F 8.7 °F 16.0 °F 74% 30.13 in 4.0 mi West 18.4 mph 26.5 mph 0.01 in Snow Light Snow
12:54 PM 21.2 °F 5.6 °F 15.8 °F 80% 30.03 in 1.8 mi WNW 20.7 mph 27.6 mph 0.00 in Snow Light Snow
1:06 PM 21.2 °F 6.8 °F 15.8 °F 80% 30.03 in 4.0 mi West 17.3 mph 29.9 mph 0.00 in Snow Light Snow
1:54 PM 21.0 °F 3.6 °F 9.0 °F 60% 30.13 in 10.0 mi West 26.5 mph 32.2 mph 0.00 in   Overcast
2:54 PM 19.9 °F 3.2 °F 6.1 °F 55% 30.15 in 10.0 mi West 23.0 mph 32.2 mph N/A   Mostly Cloudy
3:54 PM 19.0 °F 2.0 °F 6.1 °F 57% 30.17 in 10.0 mi WNW 23.0 mph 32.2 mph N/A   Overcast
4:54 PM 18.0 °F 0.9 °F 3.0 °F 52% 30.18 in 10.0 mi WNW 21.9 mph 29.9 mph N/A   Partly Cloudy
5:54 PM 16.0 °F 0.6 °F 1.9 °F 54% 30.21 in 10.0 mi West 16.1 mph - N/A   Clear
6:54 PM 15.1 °F -0.6 °F 3.9 °F 61% 30.22 in 10.0 mi WNW 16.1 mph - 0.01 in   Scattered Clouds
7:54 PM 12.9 °F -2.8 °F 3.0 °F 65% 30.24 in 10.0 mi WNW 15.0 mph 20.7 mph N/A   Clear
8:54 PM 10.9 °F -7.0 °F 1.0 °F 64% 30.26 in 10.0 mi WNW 18.4 mph - N/A   Clear
9:54 PM 10.9 °F -5.4 °F 1.0 °F 64% 30.28 in 10.0 mi West 15.0 mph 23.0 mph N/A   Clear
10:54 PM 10.0 °F -7.6 °F -0.9 °F 61% 30.29 in 10.0 mi West 17.3 mph - N/A   Clear
11:54 PM 9.0 °F -9.0 °F -4.0 °F 56% 30.30 in 10.0 mi West 17.3 mph 27.6 mph N/A   Clear